Regional Weather Roundup
Issued by NWS Kansas City/Pleasant Hill, MO

Home | Current Version | Previous Version | Text Only | Print | Product List | Glossary On
Versions: 1 2 3 4 5 6 7 8 9 10 11 12 13 14 15 16 17 18 19 20 21 22 23 24 25 26 27 28 29 30 31 32 33 34 35 36 37 38 39 40 41 42 43 44 45 46 47 48 49 50
000
ASUS43 KEAX 241410
RWREAX

WEATHER ROUNDUP FOR EASTERN KANSAS AND NORTHWEST MISSOURI
NATIONAL WEATHER SERVICE KANSAS CITY/PLEASANT HILL MO
900 AM CDT FRI MAR 24 2017

KSZ040-057-103>105-MOZ028-029-037-043-241500-
...KANSAS CITY METROPOLITAN AREA...

CITY           SKY/WX    TMP DP  RH WIND       PRES   REMARKS
K.C. INTL      CLOUDY    68  42  38 S16       29.82R
K.C. DOWNTOWN  CLOUDY    70  41  34 S15       29.81R
LEES SUMMIT    CLOUDY    65  46  50 S14       29.83R
OLATHE - IXD   CLOUDY    67  41  38 S16G25    29.80R
OLATHE - OJC   PTSUNNY   66  42  41 S20G31    29.80R
LAWRENCE       CLOUDY    64  46  52 SE9G18    29.80R

$$

MOZ001>008-011>017-020>025-030>033-038>040-044>046-053-054-241500-
...NORTHERN AND CENTRAL MISSOURI...

CITY           SKY/WX    TMP DP  RH WIND       PRES   REMARKS
ST. JOSEPH     PTSUNNY   67  49  52 S13       29.80R
MOSBY          CLOUDY    63  46  55 SE6       29.84R
WARRENSBURG    CLOUDY    68  41  37 S17G24    29.85R
WHITEMAN AFB   PTSUNNY   67  47  49 S14       29.85R
CLINTON        SUNNY     68  45  42 S14       29.87R
SEDALIA        CLOUDY    68  46  45 S13       29.88S
WARSAW         NOT AVBL
CHILLICOTHE      N/A     64  48  56 S7        29.86R
KIRKSVILLE     SUNNY     68  32  26 S14       29.88S

$$

MOZ041-047>049-056>058-063>065-088>090-097-241500-
...EASTERN AND SOUTHERN MISSOURI...

CITY           SKY/WX    TMP DP  RH WIND       PRES   REMARKS
ST. LOUIS INTL MOSUNNY   68  52  56 S8        30.00F
SPIRIT OF STL  SUNNY     69  52  54 S10       29.98F
COLUMBIA       SUNNY     70  49  47 S18G26    29.91F
JEFFERSON CITY SUNNY     71  49  45 SE13      29.92F
ROLLA          SUNNY     66  52  60 S13G30    29.95F
OSAGE BEACH    MOSUNNY  N/A N/A N/A S15G23    29.92F
SPRINGFIELD    CLOUDY    67  48  50 S18       29.91R
BRANSON        PTSUNNY   66  48  52 S14G22    29.97R
JOPLIN         PTSUNNY   67  44  43 S23G33    29.88R
WEST PLAINS    CLOUDY    65  54  67 S17G26    30.04S

$$

IAZ060-094-KSZ022-034>040-054-083-096-NEZ052-066-093-241500-
...KANSAS...SOUTHEAST NEBRASKA AND IOWA...

CITY           SKY/WX    TMP DP  RH WIND       PRES   REMARKS
TOPEKA         CLOUDY    66  44  45 S8        29.77R
MANHATTAN      PTSUNNY   67  45  45 S8        29.74R
EMPORIA        CLOUDY    65  47  52 S20G32    29.75R
CHANUTE        LGT RAIN  64  50  60 S21G32    29.82R
WICHITA        MOSUNNY   65  50  58 SE17      29.72R
OMAHA          CLOUDY    50  46  86 N15       29.82R FOG
LINCOLN        CLOUDY    51  49  92 N15G26    29.84R
FALLS CITY     CLOUDY    61  51  70 S7        29.80R
LAMONI         CLOUDY    61  48  62 S9        29.82R
DES MOINES     CLOUDY    62  48  60 SW3       29.81R

$$




USA.gov is the U.S. government's official web portal to all federal, state and local government web resources and services.